Location: Neuvy Saint Sepulchre
(46.5953°N, 1.8122°E)
Time: 16:46:44
(UTC+02:00)

ISS - Pass Details

Date: 12 May 2026
Orbit: 414 x 424 km, 51.6° (Epoch: 21 May)

Event Time Altitude Azimuth Distance (km) Brightness Sun altitude
Rises 00:53:52 0° 288° (WNW) 2,353 0.5 -24.1°
Reaches altitude 10° 00:56:05 10° 298° (WNW) 1,491 -0.5 -24.2°
Maximum altitude 00:59:11 34° 6° (N) 709 -2.1 -24.4°
Enters shadow 00:59:19 34° 12° (NNE) 712 -2.1 -24.4°
